QPF
0.00 0.00 0.00 0.00 0.00 0.00 0.00 0.00 0.00 0.00 0.00 0.00 0.00 0.00 0.00 0.00 0.00 0.01 0.00 0.00 0.00 0.00 0.00 0.00 0.00 0.00 0.00 0.00 0.00 0.00 0.00 0.00 0.00 0.00 0.00 0.00 0.00 0.00 0.00 0.00 0.00 0.00 0.00
0.00 0.00 0.00 0.00 0.00 0.00 0.00 0.00 0.00 0.00 0.00 0.00 0.00 0.00 0.00 0.00 0.02 0.03 0.02 0.01 0.00 0.00 0.00 0.00 0.00 0.00 0.00 0.00 0.00 0.00 0.00 0.00 0.00 0.00 0.00 0.00 0.00 0.00 0.00 0.00 0.00 0.00 0.00
0.00 0.00 0.00 0.00 0.00 0.00 0.00 0.00 0.00 0.00 0.00 0.00 0.00 0.00 0.00 0.01 0.05 0.10 0.06 0.01 0.00 0.00 0.00 0.00 0.00 0.00 0.00 0.00 0.00 0.00 0.00 0.00 0.00 0.00 0.00 0.00 0.00 0.00 0.00 0.00 0.00 0.00 0.00
0.00 0.00 0.00 0.00 0.00 0.00 0.00 0.00 0.00 0.00 0.00 0.00 0.00 0.00 0.00 0.02 0.09 0.09 0.03 0.00 0.00 0.00 0.00 0.00 0.00 0.00 0.00 0.00 0.00 0.00 0.00 0.00 0.00 0.00 0.00 0.00 0.00 0.00 0.00 0.00 0.00 0.00 0.00
0.00 0.00 0.00 0.00 0.00 0.00 0.00 0.00 0.00 0.00 0.00 0.00 0.00 0.00 0.00 0.03 0.04 0.01 0.01 0.00 0.00 0.00 0.00 0.00 0.00 0.00 0.00 0.00 0.00 0.00 0.00 0.00 0.00 0.00 0.00 0.00 0.00 0.00 0.00 0.00 0.00 0.00 0.00
0.00 0.00 0.00 0.00 0.00 0.00 0.00 0.00 0.00 0.00 0.00 0.00 0.00 0.00 0.00 0.02 0.02 0.00 0.01 0.01 0.01 0.01 0.00 0.00 0.00 0.00 0.00 0.00 0.00 0.00 0.00 0.00 0.00 0.00 0.00 0.00 0.00 0.00 0.00 0.00 0.00 0.00 0.00
0.00 0.00 0.00 0.00 0.00 0.00 0.00 0.00 0.00 0.00 0.00 0.00 0.00 0.01 0.02 0.01 0.01 0.03 0.04 0.03 0.02 0.01 0.01 0.00 0.00 0.00 0.00 0.00 0.00 0.00 0.00 0.00 0.00 0.00 0.00 0.00 0.00 0.00 0.00 0.00 0.00 0.00 0.00
0.00 0.00 0.00 0.00 0.00 0.00 0.00 0.00 0.00 0.00 0.00 0.00 0.00 0.02 0.04 0.07 0.08 0.10 0.08 0.05 0.04 0.03 0.01 0.00 0.00 0.00 0.00 0.00 0.00 0.00 0.00 0.00 0.00 0.00 0.00 0.00 0.00 0.00 0.00 0.00 0.00 0.00 0.00
0.00 0.00 0.00 0.00 0.00 0.00 0.00 0.00 0.00 0.00 0.00 0.00 0.01 0.04 0.05 0.05 0.08 0.07 0.04 0.02 0.01 0.01 0.00 0.00 0.00 0.00 0.00 0.00 0.00 0.00 0.00 0.00 0.00 0.00 0.00 0.00 0.00 0.00 0.00 0.00 0.00 0.00 0.00
0.00 0.00 0.00 0.00 0.00 0.00 0.00 0.00 0.00 0.00 0.00 0.00 0.00 0.02 0.06 0.10 0.09 0.07 0.05 0.03 0.01 0.00 0.00 0.00 0.00 0.00 0.00 0.00 0.00 0.00 0.00 0.00 0.00 0.00 0.00 0.00 0.00 0.00 0.00 0.00 0.00 0.00 0.00
0.00 0.00 0.00 0.00 0.00 0.00 0.00 0.00 0.00 0.00 0.00 0.00 0.00 0.02 0.08 0.12 0.09 0.08 0.07 0.04 0.01 0.00 0.00 0.00 0.00 0.00 0.00 0.00 0.00 0.00 0.00 0.00 0.00 0.00 0.00 0.00 0.00 0.00 0.00 0.00 0.00 0.00 0.00
0.00 0.00 0.00 0.00 0.00 0.00 0.00 0.00 0.00 0.00 0.00 0.00 0.01 0.02 0.04 0.07 0.06 0.06 0.05 0.04 0.02 0.01 0.00 0.00 0.00 0.00 0.00 0.00 0.00 0.00 0.00 0.00 0.00 0.00 0.00 0.00 0.00 0.00 0.00 0.00 0.00 0.00 0.00
0.00 0.00 0.00 0.00 0.00 0.00 0.00 0.00 0.00 0.00 0.00 0.00 0.00 0.00 0.02 0.02 0.02 0.03 0.02 0.02 0.02 0.02 0.01 0.00 0.00 0.00 0.00 0.00 0.00 0.00 0.00 0.00 0.00 0.00 0.00 0.00 0.00 0.00 0.00 0.00 0.00 0.00 0.00
0.00 0.00 0.00 0.00 0.00 0.00 0.00 0.00 0.00 0.01 0.01 0.01 0.02 0.02 0.03 0.03 0.03 0.02 0.00 0.00 0.00 0.00 0.00 0.00 0.00 0.00 0.00 0.00 0.00 0.00 0.00 0.00 0.00 0.00 0.00 0.00 0.00 0.00 0.00 0.00 0.00 0.00 0.00
0.00 0.00 0.00 0.00 0.00 0.00 0.00 0.00 0.01 0.02 0.01 0.01 0.00 0.00 0.00 0.00 0.00 0.00 0.00 0.00 0.00 0.00 0.00 0.00 0.00 0.00 0.00 0.00 0.00 0.00 0.00 0.00 0.00 0.00 0.00 0.00 0.00 0.00 0.00 0.00 0.00 0.00 0.00
0.00 0.00 0.00 0.00 0.00 0.00 0.00 0.00 0.00 0.00 0.00 0.00 0.00 0.00 0.00 0.00 0.00 0.00 0.00 0.00 0.00 0.00 0.00 0.00 0.00 0.00 0.00 0.00 0.00 0.00 0.00 0.00 0.00 0.00 0.00 0.00 0.00 0.00 0.00 0.00 0.00 0.00 0.00
0.00 0.00 0.00 0.00 0.00 0.00 0.00 0.00 0.00 0.00 0.00 0.00 0.00 0.00 0.00 0.00 0.00 0.00 0.00 0.00 0.00 0.00 0.00 0.00 0.00 0.00 0.00 0.00 0.00 0.00 0.00 0.00 0.00 0.00 0.00 0.00 0.00 0.00 0.00 0.00 0.00 0.00 0.00
0.00 0.00 0.00 0.00 0.00 0.00 0.00 0.00 0.00 0.00 0.00 0.00 0.00 0.00 0.00 0.00 0.00 0.00 0.00 0.00 0.00 0.00 0.00 0.00 0.00 0.00 0.00 0.00 0.00 0.00 0.00 0.00 0.00 0.00 0.00 0.00 0.00 0.00 0.00 0.00 0.00 0.00 0.00
0.00 0.00 0.00 0.00 0.00 0.00 0.00 0.00 0.00 0.00 0.00 0.00 0.00 0.00 0.00 0.00 0.00 0.00 0.00 0.00 0.00 0.00 0.00 0.00 0.00 0.00 0.00 0.00 0.00 0.00 0.00 0.00 0.00 0.00 0.00 0.00 0.00 0.00 0.00 0.00 0.00 0.00 0.00
0.00 0.00 0.00 0.00 0.00 0.00 0.00 0.00 0.00 0.00 0.00 0.00 0.00 0.00 0.00 0.00 0.00 0.00 0.00 0.00 0.00 0.00 0.00 0.00 0.00 0.00 0.00 0.00 0.00 0.00 0.00 0.00 0.00 0.00 0.00 0.00 0.00 0.00 0.00 0.00 0.00 0.00 0.00
0.00 0.00 0.00 0.00 0.00 0.00 0.00 0.00 0.00 0.00 0.00 0.00 0.00 0.00 0.00 0.00 0.00 0.00 0.00 0.00 0.00 0.00 0.00 0.00 0.00 0.00 0.00 0.00 0.00 0.00 0.00 0.00 0.00 0.00 0.00 0.00 0.00 0.00 0.00 0.00 0.00 0.00 0.00
0.00 0.00 0.00 0.00 0.00 0.00 0.00 0.00 0.00 0.00 0.00 0.00 0.00 0.00 0.00 0.00 0.00 0.00 0.00 0.00 0.00 0.00 0.00 0.00 0.00 0.00 0.00 0.00 0.00 0.00 0.00 0.00 0.00 0.00 0.00 0.00 0.00 0.00 0.00 0.00 0.00 0.00 0.00
0.00 0.00 0.00 0.00 0.00 0.00 0.00 0.00 0.00 0.00 0.00 0.00 0.00 0.00 0.00 0.00 0.00 0.00 0.00 0.00 0.00 0.00 0.00 0.00 0.00 0.00 0.00 0.00 0.00 0.00 0.00 0.00 0.00 0.00 0.00 0.00 0.00 0.00 0.00 0.00 0.00 0.00 0.00
0.00 0.00 0.00 0.00 0.00 0.00 0.00 0.00 0.00 0.00 0.00 0.00 0.00 0.00 0.00 0.00 0.00 0.00 0.00 0.00 0.00 0.00 0.00 0.00 0.00 0.00 0.00 0.00 0.00 0.00 0.00 0.00 0.00 0.00 0.00 0.00 0.00 0.00 0.00 0.00 0.00 0.00 0.00
0.00 0.00 0.00 0.00 0.00 0.00 0.00 0.00 0.00 0.00 0.00 0.00 0.00 0.00 0.00 0.00 0.00 0.00 0.00 0.00 0.00 0.00 0.00 0.00 0.00 0.00 0.00 0.00 0.00 0.00 0.00 0.00 0.00 0.00 0.00 0.00 0.01 0.01 0.01 0.01 0.00 0.00 0.00
0.00 0.00 0.00 0.00 0.00 0.00 0.00 0.00 0.00 0.00 0.00 0.00 0.00 0.00 0.00 0.00 0.00 0.00 0.00 0.00 0.00 0.00 0.00 0.00 0.00 0.00 0.00 0.00 0.00 0.00 0.00 0.00 0.00 0.00 0.01 0.01 0.02 0.02 0.02 0.02 0.02 0.01 0.00
MSLP
1013.71 1014.66 1015.23 1015.75 1016.29 1016.81 1017.37 1017.93 1018.43 1018.83 1019.08 1019.11 1019.43 1019.64 1019.96 1020.30 1020.88 1020.96 1021.40 1021.90 1022.04 1022.66 1022.92 1022.96 1023.82 1023.77 1023.65 1023.93 1024.34 1024.75 1025.34 1025.60 1026.02 1026.08 1026.00 1026.16 1026.56 1026.52 1026.37 1026.53 1026.50 1026.96 1027.31
1012.85 1013.73 1014.45 1015.13 1015.79 1016.20 1016.67 1017.10 1017.47 1018.02 1018.51 1018.64 1018.92 1019.22 1019.61 1019.96 1020.54 1021.09 1021.28 1021.71 1022.02 1022.37 1022.44 1022.85 1023.16 1023.65 1023.85 1024.10 1024.51 1024.90 1025.11 1025.53 1026.08 1025.72 1025.43 1024.54 1025.05 1025.88 1026.40 1026.45 1026.75 1027.09 1027.13
1011.67 1012.52 1013.46 1014.18 1014.96 1015.38 1015.85 1016.21 1016.77 1017.30 1017.87 1018.13 1018.49 1019.13 1019.45 1020.27 1020.64 1021.21 1021.32 1021.58 1021.93 1022.02 1022.15 1022.73 1022.90 1023.44 1023.66 1023.83 1024.34 1024.67 1024.95 1025.16 1025.87 1026.07 1025.61 1024.27 1023.96 1024.56 1025.05 1026.36 1026.47 1026.83 1026.87
1010.51 1011.17 1012.15 1012.89 1013.67 1014.47 1015.14 1015.67 1016.09 1016.59 1017.21 1017.80 1017.86 1018.53 1018.70 1019.11 1019.84 1020.83 1020.93 1021.04 1021.54 1021.69 1022.07 1022.53 1022.95 1023.11 1023.27 1023.64 1024.15 1024.54 1024.90 1025.03 1025.10 1025.68 1025.66 1025.50 1025.16 1024.69 1024.30 1025.26 1025.88 1026.47 1026.56
1009.50 1009.96 1010.54 1011.45 1012.56 1013.47 1014.15 1014.91 1015.48 1016.03 1016.52 1017.11 1017.49 1017.90 1018.11 1018.22 1018.88 1020.03 1020.45 1021.04 1021.51 1021.81 1021.91 1022.44 1022.88 1023.12 1023.39 1023.78 1024.15 1024.82 1025.49 1025.35 1024.60 1024.68 1024.89 1025.29 1025.33 1025.51 1025.27 1024.48 1024.40 1024.98 1025.54
1008.28 1008.83 1009.59 1010.43 1011.06 1012.25 1013.14 1013.97 1014.60 1015.07 1015.74 1016.33 1016.97 1017.03 1017.35 1017.81 1018.83 1019.50 1020.35 1020.96 1021.79 1022.27 1022.20 1022.26 1022.65 1022.90 1023.19 1023.81 1024.50 1025.42 1025.46 1025.15 1025.22 1024.51 1024.71 1024.86 1024.82 1024.70 1024.90 1024.76 1024.62 1024.64 1025.11
1007.39 1007.88 1008.51 1009.10 1009.90 1010.80 1012.04 1012.92 1013.50 1013.90 1014.75 1015.41 1016.14 1016.53 1017.02 1017.68 1018.35 1019.21 1019.90 1020.67 1021.24 1021.88 1021.96 1022.51 1022.75 1023.19 1023.39 1023.84 1024.64 1025.28 1025.37 1025.45 1024.88 1024.81 1024.84 1024.91 1024.93 1025.11 1025.16 1025.12 1024.75 1024.71 1024.85
1006.43 1006.82 1007.29 1008.02 1008.86 1009.85 1010.94 1011.94 1012.51 1012.97 1013.61 1014.52 1015.28 1016.12 1016.85 1017.65 1018.31 1019.01 1019.65 1020.28 1020.97 1021.40 1021.75 1022.72 1023.18 1023.36 1023.77 1024.18 1024.94 1025.28 1025.12 1025.03 1024.95 1024.99 1025.03 1024.85 1024.90 1025.07 1025.19 1025.07 1025.04 1024.75 1024.57
1005.81 1006.15 1006.63 1007.33 1008.30 1009.11 1010.06 1010.99 1011.69 1012.42 1012.87 1013.66 1014.82 1015.53 1016.43 1017.00 1017.63 1018.52 1019.00 1019.67 1020.34 1020.83 1021.67 1022.48 1022.77 1023.40 1023.93 1024.19 1024.77 1024.83 1024.62 1024.84 1024.77 1024.95 1025.05 1025.02 1024.94 1025.01 1025.20 1025.33 1025.27 1025.12 1024.72
1005.87 1006.21 1006.65 1007.11 1007.81 1008.59 1009.52 1010.63 1011.18 1011.66 1012.13 1013.16 1014.21 1014.88 1015.65 1016.45 1017.33 1018.37 1018.91 1019.39 1019.79 1020.29 1021.04 1021.91 1022.53 1023.46 1024.01 1024.41 1024.07 1024.21 1024.41 1024.61 1024.83 1024.87 1024.79 1024.84 1024.74 1024.78 1024.92 1024.97 1025.00 1025.21 1024.94
1005.67 1006.25 1006.75 1007.25 1007.86 1008.51 1009.26 1010.18 1010.91 1011.45 1011.86 1012.25 1013.38 1014.16 1014.97 1016.19 1017.20 1017.33 1018.37 1018.95 1019.35 1019.76 1020.55 1021.09 1021.91 1023.21 1023.71 1023.43 1023.67 1024.02 1024.04 1024.63 1024.70 1024.71 1024.73 1024.51 1024.60 1024.59 1024.56 1024.70 1024.81 1024.78 1024.67
1006.20 1006.46 1006.75 1007.32 1007.84 1008.41 1009.08 1009.73 1010.41 1010.85 1011.26 1011.88 1012.77 1013.64 1015.13 1015.92 1016.45 1016.94 1017.71 1018.37 1018.80 1019.91 1020.75 1021.21 1021.99 1022.47 1022.61 1022.77 1023.51 1023.75 1024.40 1024.59 1024.74 1024.27 1024.23 1024.21 1024.19 1024.33 1024.26 1024.16 1024.23 1024.24 1024.12
1006.35 1006.75 1007.20 1007.57 1007.89 1008.50 1009.19 1009.79 1010.48 1010.87 1011.25 1012.11 1013.10 1013.81 1014.55 1015.51 1016.31 1016.88 1017.45 1018.12 1019.00 1019.73 1020.35 1020.90 1021.29 1021.60 1022.29 1022.61 1023.24 1023.56 1024.21 1024.68 1024.51 1023.73 1023.52 1023.56 1023.65 1023.56 1023.60 1023.55 1023.61 1023.53 1023.45
1006.91 1006.92 1007.46 1008.08 1008.54 1009.06 1009.56 1010.05 1010.69 1011.41 1012.07 1012.46 1013.01 1013.68 1014.47 1015.09 1015.73 1016.43 1017.19 1017.88 1018.68 1019.40 1019.95 1020.46 1020.97 1021.51 1021.88 1022.52 1023.44 1023.74 1024.27 1024.05 1023.63 1023.52 1023.27 1023.02 1022.91 1022.85 1023.01 1022.90 1022.83 1022.99 1023.01
1007.43 1007.73 1007.92 1008.42 1009.07 1009.66 1010.17 1010.67 1011.40 1012.13 1012.63 1012.90 1013.33 1013.86 1014.52 1015.10 1015.68 1016.22 1016.78 1017.45 1018.38 1019.24 1020.15 1020.61 1021.28 1021.83 1022.28 1023.11 1023.51 1023.82 1023.96 1023.56 1023.16 1022.88 1022.58 1022.29 1022.13 1022.36 1022.31 1022.24 1022.07 1022.31 1022.47
1008.32 1008.85 1009.14 1009.46 1009.86 1010.22 1010.61 1011.39 1011.94 1012.66 1013.00 1013.40 1013.78 1014.35 1014.99 1015.47 1016.00 1016.74 1017.62 1018.39 1019.00 1019.61 1020.23 1020.74 1021.24 1021.94 1023.13 1023.32 1023.64 1024.09 1023.75 1023.23 1022.69 1022.15 1021.81 1021.51 1021.55 1021.58 1022.00 1021.96 1021.81 1021.93 1021.91
1009.14 1009.76 1010.28 1010.68 1010.99 1011.40 1011.68 1012.11 1012.81 1013.26 1013.66 1014.14 1014.72 1015.14 1015.51 1015.97 1016.69 1017.37 1018.13 1018.85 1019.48 1020.02 1020.53 1021.10 1021.59 1022.23 1022.50 1023.06 1023.67 1023.82 1023.62 1023.16 1022.38 1021.78 1021.34 1020.88 1020.55 1020.55 1020.91 1021.24 1021.56 1021.72 1021.91
1010.23 1010.68 1011.17 1011.59 1011.96 1012.35 1012.75 1013.11 1013.56 1014.08 1014.55 1015.03 1015.44 1015.78 1016.17 1016.74 1017.37 1017.92 1018.59 1019.30 1019.72 1020.21 1020.64 1021.19 1021.56 1021.79 1022.28 1022.86 1023.32 1023.33 1023.08 1022.48 1021.64 1021.11 1020.66 1020.20 1019.86 1019.66 1019.70 1020.14 1020.25 1020.71 1020.85
1011.16 1011.79 1012.21 1012.57 1012.90 1013.18 1013.56 1013.82 1014.27 1014.81 1015.29 1015.77 1016.15 1016.54 1016.89 1017.24 1017.72 1018.32 1018.94 1019.52 1019.92 1020.44 1020.98 1021.32 1021.57 1021.83 1022.03 1022.51 1022.74 1022.85 1022.30 1021.61 1020.90 1020.44 1019.97 1019.53 1019.20 1019.03 1019.11 1019.40 1019.15 1019.22 1019.36
1012.17 1012.62 1013.07 1013.43 1013.66 1014.08 1014.36 1014.67 1015.21 1015.72 1016.21 1016.67 1017.05 1017.43 1017.78 1018.10 1018.55 1019.06 1019.58 1020.01 1020.32 1020.70 1021.15 1021.53 1021.82 1021.90 1022.11 1021.84 1021.98 1022.32 1021.90 1021.04 1020.31 1019.89 1019.31 1018.92 1018.83 1018.75 1018.49 1018.57 1018.53 1018.41 1018.35
1012.86 1013.35 1013.69 1013.96 1014.37 1014.78 1015.10 1015.39 1015.99 1016.46 1017.13 1017.57 1017.93 1018.29 1018.62 1019.11 1019.50 1019.96 1020.58 1020.94 1021.15 1021.27 1021.29 1021.27 1021.23 1021.27 1021.34 1021.47 1021.76 1021.92 1021.73 1020.93 1019.99 1019.37 1018.66 1018.26 1018.02 1017.94 1018.15 1017.86 1017.78 1017.52 1017.84
1013.36 1013.82 1014.18 1014.63 1015.03 1015.26 1015.57 1016.07 1016.75 1017.54 1018.01 1018.44 1018.94 1019.38 1019.77 1020.04 1020.08 1020.11 1020.29 1020.44 1020.56 1020.75 1020.86 1020.97 1020.94 1020.89 1021.00 1021.23 1021.54 1021.76 1021.73 1021.35 1020.51 1019.46 1018.60 1017.86 1017.49 1017.29 1017.23 1017.37 1017.05 1016.91 1017.22
1013.53 1014.22 1014.72 1015.20 1015.76 1016.18 1016.61 1017.04 1017.80 1018.25 1018.69 1019.10 1019.47 1019.83 1020.11 1020.31 1020.50 1020.53 1020.67 1020.70 1020.83 1021.05 1021.16 1021.22 1021.25 1021.11 1021.29 1021.34 1021.49 1021.84 1021.62 1021.00 1020.59 1019.81 1018.85 1018.19 1017.57 1017.09 1016.64 1016.33 1016.11 1016.08 1016.34
1013.70 1014.46 1015.15 1015.79 1016.57 1017.24 1017.64 1018.01 1018.49 1018.94 1019.34 1019.72 1020.09 1020.43 1020.76 1020.83 1021.08 1021.11 1021.37 1021.45 1021.78 1021.99 1022.01 1021.88 1021.86 1021.82 1021.83 1021.79 1022.19 1022.29 1021.65 1020.88 1020.15 1019.27 1018.28 1017.67 1017.04 1016.43 1015.76 1015.29 1014.75 1014.75 1014.49
1014.09 1014.80 1015.60 1016.49 1017.35 1018.07 1018.57 1019.00 1019.32 1019.57 1019.97 1020.43 1020.85 1021.18 1021.44 1021.50 1021.59 1021.97 1022.59 1022.89 1023.18 1023.69 1023.29 1023.02 1022.94 1022.93 1022.82 1022.93 1023.53 1023.04 1022.01 1021.25 1020.45 1019.35 1017.95 1016.58 1015.66 1014.99 1014.30 1013.68 1013.53 1013.37 1013.21
1014.46 1015.44 1016.42 1017.30 1018.20 1018.82 1019.38 1019.84 1020.10 1020.27 1020.53 1020.93 1021.38 1021.87 1021.96 1022.13 1022.26 1022.56 1022.91 1023.97 1024.19 1024.35 1024.27 1024.29 1024.16 1023.85 1023.74 1023.80 1023.42 1022.77 1021.99 1021.19 1020.15 1018.71 1017.18 1016.04 1015.32 1014.56 1013.67 1012.89 1012.46 1012.32 1012.43
Thickness
5642 5637 5635 5633 5628 5626 5622 5618 5615 5612 5612 5612 5610 5610 5607 5607 5602 5605 5603 5601 5602 5597 5595 5596 5587 5586 5585 5581 5576 5569 5560 5554 5545 5538 5536 5533 5525 5520 5514 5509 5503 5496 5489
5647 5643 5640 5637 5632 5630 5628 5626 5624 5621 5617 5616 5615 5612 5610 5609 5605 5602 5603 5601 5599 5595 5597 5591 5587 5579 5575 5573 5565 5560 5555 5546 5535 5533 5531 5533 5522 5517 5506 5498 5492 5484 5478
5655 5650 5645 5643 5639 5637 5635 5634 5631 5627 5623 5621 5618 5613 5611 5605 5603 5598 5601 5599 5596 5595 5594 5586 5581 5574 5569 5565 5558 5554 5547 5540 5529 5522 5520 5526 5524 5512 5503 5489 5481 5474 5467
5666 5663 5656 5652 5647 5643 5641 5638 5635 5631 5627 5623 5623 5617 5615 5612 5608 5600 5599 5597 5594 5592 5586 5580 5573 5569 5563 5558 5551 5545 5538 5531 5525 5516 5511 5507 5503 5501 5496 5483 5475 5464 5456
5672 5669 5667 5663 5657 5652 5646 5642 5638 5634 5631 5627 5623 5619 5616 5617 5613 5603 5598 5592 5587 5583 5579 5572 5565 5560 5554 5548 5542 5533 5521 5518 5520 5513 5506 5497 5491 5482 5477 5477 5470 5459 5450
5681 5679 5676 5670 5667 5659 5652 5646 5641 5637 5633 5628 5623 5622 5618 5615 5606 5601 5592 5587 5578 5574 5572 5567 5559 5554 5548 5540 5531 5520 5514 5510 5505 5505 5496 5489 5483 5478 5469 5463 5457 5449 5436
5683 5681 5678 5676 5672 5666 5657 5651 5646 5643 5637 5632 5626 5622 5618 5613 5605 5597 5590 5583 5578 5570 5567 5558 5551 5545 5541 5533 5523 5514 5506 5499 5497 5491 5484 5476 5469 5461 5453 5446 5441 5432 5422
5688 5687 5685 5682 5676 5669 5662 5655 5651 5647 5643 5636 5629 5623 5616 5608 5601 5593 5586 5579 5572 5567 5562 5552 5543 5537 5531 5524 5514 5504 5498 5492 5487 5478 5470 5463 5456 5447 5438 5431 5423 5417 5409
5690 5690 5689 5685 5677 5670 5664 5657 5652 5646 5644 5638 5629 5623 5615 5609 5601 5592 5586 5578 5570 5563 5555 5546 5538 5527 5519 5514 5505 5496 5492 5482 5474 5465 5456 5448 5441 5433 5424 5415 5407 5399 5391
5684 5683 5683 5682 5678 5672 5666 5657 5653 5647 5644 5637 5630 5624 5616 5608 5596 5585 5579 5571 5566 5558 5550 5539 5530 5519 5509 5502 5498 5491 5482 5471 5460 5451 5443 5436 5430 5422 5413 5404 5394 5382 5374
5682 5679 5677 5676 5672 5668 5663 5655 5649 5645 5642 5640 5631 5624 5615 5601 5589 5586 5574 5567 5561 5555 5546 5538 5528 5514 5504 5499 5491 5479 5470 5457 5447 5439 5431 5426 5417 5409 5401 5390 5379 5369 5359
5672 5673 5673 5670 5667 5664 5660 5655 5650 5646 5643 5638 5629 5621 5606 5597 5589 5582 5574 5565 5558 5545 5536 5527 5517 5509 5502 5492 5478 5468 5454 5444 5432 5430 5423 5415 5407 5397 5387 5377 5367 5357 5347
5666 5665 5663 5661 5661 5657 5652 5649 5644 5641 5637 5628 5618 5610 5602 5591 5581 5574 5566 5557 5546 5536 5528 5518 5510 5502 5489 5478 5465 5456 5443 5428 5424 5423 5416 5407 5396 5387 5376 5367 5356 5345 5336
5655 5658 5654 5650 5649 5646 5642 5639 5635 5630 5623 5618 5612 5604 5594 5587 5578 5570 5560 5550 5539 5528 5519 5509 5499 5488 5479 5467 5451 5441 5427 5422 5418 5410 5403 5395 5386 5377 5365 5356 5346 5334 5322
5646 5645 5646 5642 5638 5633 5630 5627 5622 5614 5609 5606 5600 5593 5585 5578 5570 5562 5553 5543 5530 5517 5504 5495 5484 5472 5461 5449 5440 5426 5417 5413 5407 5400 5393 5385 5376 5365 5354 5346 5336 5324 5313
5633 5631 5630 5628 5625 5623 5621 5614 5609 5601 5597 5592 5587 5580 5572 5565 5557 5545 5533 5522 5512 5502 5491 5482 5472 5459 5445 5436 5425 5413 5408 5403 5398 5392 5385 5376 5368 5356 5342 5332 5323 5313 5306
5621 5617 5614 5611 5610 5606 5605 5600 5594 5589 5583 5577 5570 5564 5557 5549 5539 5529 5518 5507 5496 5486 5476 5465 5455 5442 5434 5422 5411 5401 5395 5390 5386 5379 5372 5366 5357 5348 5335 5323 5309 5302 5293
5606 5604 5601 5598 5595 5592 5588 5585 5580 5573 5567 5561 5554 5548 5540 5531 5522 5513 5502 5490 5481 5470 5461 5449 5439 5431 5419 5408 5397 5390 5384 5379 5375 5368 5361 5354 5347 5337 5327 5311 5305 5296 5287
5593 5588 5585 5583 5581 5578 5574 5571 5566 5560 5553 5545 5538 5530 5524 5517 5508 5498 5486 5475 5465 5455 5444 5433 5424 5415 5407 5394 5385 5377 5375 5371 5365 5357 5349 5341 5332 5323 5312 5301 5298 5291 5283
5577 5574 5571 5569 5567 5563 5560 5556 5549 5542 5534 5527 5520 5513 5505 5497 5487 5478 5467 5457 5448 5438 5426 5416 5406 5398 5391 5386 5376 5363 5359 5358 5353 5346 5337 5328 5317 5303 5299 5292 5288 5285 5278
5565 5561 5559 5556 5552 5549 5545 5540 5533 5525 5516 5508 5501 5493 5485 5475 5466 5456 5445 5435 5425 5417 5412 5406 5400 5392 5383 5373 5359 5346 5339 5335 5337 5329 5324 5314 5304 5295 5283 5281 5278 5277 5267
5553 5550 5547 5544 5541 5538 5534 5526 5516 5506 5498 5489 5480 5471 5463 5455 5449 5442 5434 5426 5419 5410 5402 5393 5386 5377 5368 5357 5344 5330 5318 5308 5305 5307 5304 5297 5289 5282 5274 5267 5267 5262 5253
5547 5541 5536 5531 5526 5521 5514 5506 5496 5488 5480 5471 5464 5455 5447 5439 5430 5424 5416 5409 5401 5393 5385 5376 5367 5360 5349 5338 5327 5312 5302 5293 5281 5276 5274 5270 5267 5261 5258 5256 5253 5249 5242
5539 5531 5524 5517 5508 5500 5493 5486 5477 5470 5462 5453 5445 5436 5426 5419 5411 5404 5395 5388 5379 5370 5363 5356 5347 5337 5326 5317 5303 5291 5284 5277 5270 5263 5261 5252 5246 5243 5242 5240 5242 5240 5239
5527 5520 5511 5501 5490 5481 5473 5465 5458 5451 5443 5433 5423 5414 5405 5398 5391 5382 5370 5361 5352 5339 5335 5329 5319 5310 5300 5288 5270 5261 5257 5249 5244 5240 5241 5243 5239 5235 5233 5232 5230 5229 5231
5513 5503 5492 5482 5471 5462 5453 5445 5438 5431 5424 5415 5404 5392 5386 5378 5370 5361 5355 5335 5324 5315 5307 5299 5292 5282 5271 5259 5250 5240 5231 5224 5218 5221 5223 5223 5218 5216 5216 5219 5220 5220 5219